SCP
-0 0 0 0 0 0 0 0 0 0 0 0 0 0 0 0 0 0 0 0 0 0 0 0 0 0 0 0 0 0 0 0 0 0 0 0 0 0 0 0 0 0 0 0
0 0 0 0 0 0 0 0 0 0 0 0 0 0 0 0 0 0 0 0 0 0 0 0 0 0 0 0 0 0 0 0 0 0 0 0 0 0 0 0 0 0 0 0
0 0 0 0 0 0 0 0 0 0 0 0 0 0 0 0 0 0 0 0 0 0 0 0 0 0 0 0 0 0 0 0 0 0 0 -0 0 -0 -0 -0 0 0 0 0
0 0 0 0 0 0 0 0 0 0 0 0 0 0 0 0 0 0 0 0 0 0 0 0 0 0 0 0 0 0 0 0 0 -0 0 -0 0 0 -0 -0 0 -0 0 0
0 0 0 0 0 0 0 0 0 0 0 0 0 0 0 0 0 -0 0 0 0 0 0 0 0 0 0 0 0 0 0 0 0 -0 0 0 -0 -0 0 -0 -0 0 0 0
0 0 0 0 0 0 0 0 0 0 0 0 0 0 0 0 0 0 0 0 0 0 0 0 0 0 0 0 0 0 0 0 0 0 -0 0 0 -0 -0 -0 -0 0 -0 -0
0 0 0 0 0 0 0 0 0 0 0 0 0 0 0 0 0 0 0 0 0 0 0 0 0 0 0 0 0 0 0 0 0 0 -0 -0 0 0 0 -0 0 -0 0 0
0 0 0 0 0 0 0 0 0 0 0 0 0 0 0 0 0 0 0 0 0 0 0 0 0 0 0 0 0 0 0 0 0 0 0 0 0 0 0 0 0 0 0 0
0 0 0 0 0 0 0 0 0 0 0 0 0 0 0 0 0 0 0 0 0 0 0 0 0 0 0 0 0 0 -0 -0 0 0 0 0 -0 -0 -0 0 0 0 0 0
0 0 0 0 0 0 0 0 0 0 0 0 0 0 0 0 0 0 0 0 0 0 -0 -0 -0 -0 -0 0 0 0 -0 -0 0 0 0 0 0 0 0 -0 0 0 0 0
0 0 0 0 0 0 0 0 0 0 0 0 0 0 0 0 0 0 0 0 0 0 0 0 -0 -0 -0 -0 -0 -0 0 -0 0 0 0 0 0 0 -0 0 0 -0 0 0
0 0 0 0 0 0 0 0 0 0 0 0 0 0 0 0 0 0 0 0 0 0 0 0 0 0 0 -0 -0 -0 -0 0 -0 0 0 0 0 0 0 -0 -0 -0 0 0
0 0 0 0 0 0 0 0 0 0 0 0 0 0 0 0 0 0 0 0 0 0 0 0 0 0 0 0 -0 -0 -0 -0 0 0 0 0 0 0 0 0 0 -0 0 0
0 0 0 0 0 0 0 0 0 0 0 0 0 0 0 0 0 0 0 0 0 0 0 0 0 0 0 0 0 0 0 -0 -0 0 0 0 0 0 0 0 0 -0 0 0
0 0 0 0 0 0 0 0 0 0 0 0 0 0 0 0 0 0 0 0 0 0 0 0 0 0 0 0 0 0 0 0 0 0 0 0 0 -0 0 0 0 0 0 0
0 0 0 0 0 0 0 0 0 0 0 0 0 0 0 0 0 0 0 0 0 0 0 0 0 0 0 0 0 0 0 0 0 0 0 -0 0 0 0 0 0 0 0 0
0 0 0 0 0 0 0 0 0 0 0 0 0 0 0 0 0 0 0 0 0 0 0 0 0 0 0 0 0 0 0 0 0 0 0 0 0 0 0 0 0 0 0 0
0 0 0 0 0 0 0 0 0 0 0 0 0 0 0 0 0 0 0 0 0 0 0 0 0 0 0 0 0 0 0 0 0 0 0 0 0 -0 -0 0 0 0 0 0
0 0 0 0 0 0 0 0 0 0 0 0 0 0 0 0 0 0 0 0 0 0 0 0 0 0 0 0 0 0 0 0 0 0 0 0 0 -0 -0 0 0 0 0 0
0 0 0 0 0 0 0 0 0 0 0 0 0 0 0 0 0 0 0 0 0 0 0 0 0 0 0 0 0 0 0 0 0 0 0 0 0 -0 -0 -0 0 0 0 0
0 0 0 0 0 0 0 0 0 0 0 0 0 0 0 0 0 0 0 0 0 0 0 0 0 0 0 0 0 -0 -0 0 0 -0 0 -0 -0 -0 0 -0 0 0 0 0
0 0 0 0 0 0 0 0 0 0 0 0 0 0 0 0 0 0 0 0 0 0 0 0 0 0 0 0 -0 -0 -0 -0 -0 -0 -0 -0 -0 0 0 0 0 0 0 0
0 0 0 0 0 0 0 0 0 0 0 0 0 0 0 0 0 0 0 0 0 0 0 0 0 0 0 0 0 -0 -0 0 0 -0 0 -0 -0 -0 0 0 0 0 0 0
0 0 0 0 0 0 0 0 0 0 0 0 0 0 0 0 0 0 0 0 0 0 0 0 0 0 0 0 0 -0 -0 -0 -0 0 0 0 -0 0 0 0 0 0 0 0
0 0 0 0 0 0 0 0 0 0 0 0 0 0 0 0 0 0 0 0 0 0 0 0 0 0 0 0 0 0 0 -0 -0 -0 -0 0 0 -0 -0 -0 0 0 0 0
0 0 0 0 0 0 0 0 0 0 0 0 0 0 0 0 0 0 0 0 0 0 0 0 0 0 0 0 0 0 0 0 0 0 0 -0 0 0 -0 -0 -0 0 0 0
0 0 0 0 0 0 0 0 0 0 0 0 0 0 0 0 0 0 0 0 0 0 0 0 0 0 0 0 0 0 0 0 0 0 0 0 0 0 0 0 0 0 0 0
Wind_Speed_500mb
9 9 21 15 21 28 24 9 13 9 14 11 17 10 23 25 29 27 17 2 2 7 17 25 29 21 13 6 15 15 22 10 13 15 18 15 16 20 16 21 10 10 13 19
10 20 28 19 22 25 22 16 14 11 13 24 33 31 44 44 42 42 32 21 17 16 12 21 24 23 16 14 17 20 21 16 14 14 11 15 14 14 14 21 9 4 6 15
2 5 5 18 15 23 21 22 7 12 6 20 38 34 31 44 44 38 37 48 35 30 28 23 23 25 19 23 21 21 30 17 14 16 15 12 16 17 17 15 10 9 3 3
4 7 8 12 23 33 31 15 11 12 17 21 15 16 35 50 46 45 44 48 42 28 21 29 30 29 26 25 23 21 28 24 15 21 19 15 13 17 20 16 11 12 7 6
7 5 6 12 17 14 3 19 23 18 25 32 29 32 38 45 40 44 44 44 42 40 38 32 36 43 41 32 24 24 27 30 22 18 15 18 16 19 20 17 13 13 13 17
5 9 5 4 25 49 17 7 27 31 25 25 38 9 14 42 43 45 48 55 50 47 46 42 42 47 41 43 33 28 23 32 29 26 26 22 25 23 21 18 14 17 15 16
5 6 5 14 30 14 13 9 23 29 23 23 11 10 31 39 39 37 47 55 49 52 47 47 40 36 30 30 37 36 25 29 30 28 28 25 25 24 21 19 15 13 19 19
5 6 5 23 8 11 5 15 24 17 15 18 26 29 26 25 31 37 41 47 52 56 58 54 44 37 32 42 36 31 32 34 35 31 32 34 32 29 27 29 29 24 23 24
3 7 11 23 28 21 11 8 12 16 13 21 27 26 21 24 40 41 40 42 43 47 59 62 58 40 35 32 31 32 36 35 36 35 35 38 34 36 34 33 35 27 22 22
7 2 19 16 15 9 5 11 12 19 12 16 21 17 24 35 44 47 47 45 48 50 56 60 60 56 46 34 30 40 42 38 33 33 34 34 43 40 41 38 36 29 28 20
5 10 8 8 4 5 7 8 20 25 23 28 23 29 30 34 42 37 45 45 48 44 49 53 50 52 48 42 41 29 26 38 28 30 33 34 37 44 43 44 39 36 30 25
6 17 8 3 14 2 18 25 23 29 31 34 32 28 35 38 39 34 50 38 46 49 49 48 44 39 46 51 44 31 20 32 46 31 27 26 29 39 37 42 40 38 33 30
12 8 4 8 16 14 17 24 28 30 26 23 28 28 38 39 42 41 48 36 40 45 46 43 43 39 40 41 45 34 30 36 33 23 28 26 30 25 36 34 35 40 36 30
4 4 7 11 14 21 17 18 18 18 25 30 24 21 33 40 39 37 39 34 33 37 44 43 34 29 36 35 40 30 32 28 25 26 36 27 32 32 28 34 34 45 31 37
16 14 13 12 15 16 20 23 27 28 31 32 34 42 40 33 36 42 41 39 38 39 35 34 32 29 26 33 42 34 30 32 31 32 31 35 33 37 33 28 36 39 42 36
16 7 10 11 15 17 22 27 31 33 34 34 42 38 34 42 41 44 42 40 32 36 40 44 44 44 40 37 32 33 30 34 34 35 26 31 28 30 25 26 32 41 40 31
2 4 15 15 15 18 22 26 30 32 33 41 37 32 42 42 46 44 39 33 40 51 54 55 54 50 43 26 26 31 33 36 32 27 28 27 31 36 35 24 21 29 33 39
13 17 14 13 16 22 27 29 36 35 42 39 29 36 45 50 42 36 44 48 48 47 45 49 46 43 40 37 37 35 28 32 26 23 29 27 31 32 28 31 25 35 43 30
11 10 10 16 20 23 27 35 31 40 36 28 30 42 43 44 46 45 49 45 46 51 56 54 52 49 49 43 38 36 32 29 29 27 25 22 28 34 35 29 30 25 33 37
11 6 11 15 20 26 37 23 29 41 30 30 33 43 41 44 47 51 41 47 45 47 53 51 60 52 54 41 29 23 23 11 16 19 23 31 34 33 46 43 34 33 27 27
3 9 14 16 24 27 28 22 32 40 27 29 37 36 39 44 44 52 49 47 45 43 56 48 53 53 58 52 36 32 46 45 41 39 34 38 42 37 39 41 38 33 33 31
11 15 14 21 19 26 21 21 31 38 23 25 31 31 48 40 44 46 46 40 43 46 51 45 44 47 45 46 49 30 51 53 61 64 45 44 46 40 39 37 33 28 25 30
11 16 16 14 17 23 21 21 29 31 22 29 30 31 45 37 39 42 50 45 43 47 43 45 43 43 41 44 47 48 52 59 62 57 50 46 45 41 37 32 28 24 26 22
13 19 8 14 16 19 20 23 30 29 28 23 24 42 29 36 32 38 52 44 33 42 43 41 43 41 40 41 43 53 51 52 48 46 52 46 44 43 33 28 18 15 18 14
18 13 12 17 16 18 21 24 38 30 24 25 25 35 25 29 34 40 56 41 37 41 36 35 40 35 36 36 47 46 47 44 44 41 47 47 49 44 39 32 29 22 14 18
18 21 19 17 18 20 28 32 40 31 25 29 28 34 26 32 34 41 52 45 44 33 31 35 34 30 35 43 46 52 47 45 48 46 47 50 49 49 41 37 32 29 20 15
21 16 14 19 20 26 31 34 36 27 25 28 32 37 27 32 36 39 44 47 41 46 42 39 39 34 34 38 43 47 46 48 53 53 50 46 45 51 54 46 39 28 24 21
Wind_Direction_500mb
121 101 69 82 70 62 81 144 90 79 79 341 327 50 58 51 31 40 55 26 339 289 256 254 247 254 268 291 267 262 300 296 308 314 319 328 344 324 338 349 3 7 359 26
52 80 75 61 80 61 51 51 71 86 68 358 9 32 49 41 29 17 352 318 305 310 290 284 260 264 274 289 266 257 274 292 305 328 308 313 320 331 334 348 328 11 331 22
266 15 62 32 357 90 76 39 18 43 318 17 17 2 39 29 12 352 340 330 301 310 307 307 281 275 285 324 299 267 272 277 285 280 305 309 314 308 305 324 320 227 333 307
154 40 56 124 98 99 81 48 32 40 13 24 347 348 18 24 21 10 354 347 332 305 305 294 304 296 291 303 303 279 273 271 255 282 304 302 294 343 335 306 305 230 255 285
109 94 125 5 4 323 351 50 17 24 14 20 17 34 18 12 12 7 1 353 347 343 320 302 305 295 293 287 303 277 276 275 260 257 271 296 304 310 325 328 291 259 258 263
101 113 239 326 326 328 138 69 23 24 44 46 42 39 321 8 11 12 11 359 351 344 331 331 298 291 269 281 287 282 278 269 267 268 257 271 286 291 311 317 319 287 272 272
108 112 95 314 328 7 63 291 12 50 77 44 50 20 9 6 4 3 4 9 1 359 357 351 329 324 275 270 269 287 287 271 268 270 252 266 275 288 285 295 311 296 294 303
59 82 186 350 28 82 168 44 23 43 33 28 16 358 353 360 357 354 354 360 358 359 357 357 350 324 306 277 288 274 281 275 267 268 260 257 263 272 276 286 293 294 294 302
120 175 143 86 109 105 51 19 352 338 351 350 340 337 344 354 348 354 353 355 354 351 352 359 0 345 312 300 293 271 256 270 276 265 256 255 261 268 264 269 282 281 308 288
87 138 145 140 129 99 29 5 6 355 352 349 343 341 343 349 355 352 351 354 356 351 355 357 0 3 1 334 277 268 271 264 271 271 268 266 259 267 264 262 266 267 290 286
94 164 141 204 182 117 136 3 338 333 327 330 336 348 340 335 353 357 357 352 355 355 356 356 359 4 5 4 358 331 258 290 273 274 279 272 267 260 263 261 262 266 273 281
194 146 166 353 127 230 344 320 313 322 314 318 316 317 333 347 342 336 346 350 354 357 355 353 351 357 5 10 360 348 336 318 290 284 273 278 278 278 258 255 259 260 268 271
125 183 76 167 19 330 311 333 340 330 346 2 1 338 335 343 343 336 337 332 339 346 348 345 347 346 356 359 1 354 351 328 315 321 318 286 281 285 271 260 252 249 262 275
115 183 107 53 6 16 62 51 35 15 0 4 8 356 343 345 343 350 355 351 345 335 340 340 339 339 341 349 356 355 358 352 330 326 326 293 304 283 273 260 269 251 253 264
41 127 89 45 12 45 16 5 360 5 3 358 352 352 355 357 356 351 350 343 339 336 346 348 343 337 342 333 341 343 333 349 350 351 345 341 304 307 270 264 255 254 271 272
86 55 22 57 49 28 8 2 359 1 354 351 351 356 356 351 350 350 353 357 353 357 352 346 340 338 338 327 324 323 327 332 333 337 331 346 339 316 316 274 274 248 261 259
77 353 99 61 34 18 11 0 356 351 346 349 359 356 347 348 348 355 3 3 349 346 351 348 341 334 324 313 301 309 313 334 334 332 331 328 342 333 324 309 290 244 254 252
138 103 77 47 23 359 352 351 348 349 350 355 356 347 352 354 4 4 354 346 347 357 360 356 350 350 354 330 315 308 308 325 326 326 332 325 326 330 334 319 307 280 268 272
118 85 38 5 354 351 348 345 350 347 351 355 346 353 359 4 2 353 350 357 355 358 359 356 355 345 346 337 321 325 327 339 333 326 331 316 314 322 320 321 292 288 275 270
114 50 356 346 338 342 339 342 345 354 350 348 349 355 359 2 6 6 6 7 11 7 3 2 7 6 1 360 357 345 326 13 19 350 342 330 322 307 305 311 301 271 270 260
86 342 339 333 336 342 341 338 342 351 346 347 350 351 356 360 2 7 10 8 10 11 6 4 6 8 13 11 29 36 35 24 14 3 350 345 341 334 329 323 320 294 264 258
331 328 325 327 343 344 343 330 339 349 347 352 345 344 349 357 356 1 12 7 9 358 8 9 12 9 8 5 12 20 15 6 358 354 358 360 355 345 333 328 324 316 292 263
310 317 317 319 323 340 337 322 338 349 348 345 344 342 347 353 351 351 1 6 0 2 10 6 5 13 8 3 5 1 1 359 355 356 357 360 355 348 342 336 328 309 301 299
306 325 299 288 310 324 320 325 341 346 351 345 335 341 352 348 347 349 355 357 357 0 358 359 2 9 2 357 358 358 360 358 0 360 354 2 3 3 356 358 16 44 30 2
303 302 290 285 303 306 323 329 340 349 351 345 340 349 351 345 351 352 355 356 353 351 356 3 358 354 350 358 359 1 0 355 359 357 357 3 7 7 10 5 18 38 349 323
280 290 292 283 284 313 330 330 341 348 341 339 339 347 339 347 347 347 354 6 13 358 348 355 5 1 1 4 4 7 9 12 11 5 3 2 7 8 9 13 22 32 24 5
271 262 257 245 287 313 321 326 338 342 343 331 329 342 329 338 341 342 347 359 8 17 10 2 358 357 355 353 354 355 359 3 10 10 8 12 12 12 8 7 2 358 347 345
Wind_Speed_850mb
9 9 21 15 21 28 24 9 13 9 14 11 17 10 23 25 29 27 17 2 2 7 17 25 29 21 13 6 15 15 22 10 13 15 18 15 16 20 16 21 10 10 13 19
10 20 28 19 22 25 22 16 14 11 13 24 33 31 44 44 42 42 32 21 17 16 12 21 24 23 16 14 17 20 21 16 14 14 11 15 14 14 14 21 9 4 6 15
2 5 5 18 15 23 21 22 7 12 6 20 38 34 31 44 44 38 37 48 35 30 28 23 23 25 19 23 21 21 30 17 14 16 15 12 16 17 17 15 10 9 3 3
4 7 8 12 23 33 31 15 11 12 17 21 15 16 35 50 46 45 44 48 42 28 21 29 30 29 26 25 23 21 28 24 15 21 19 15 13 17 20 16 11 12 7 6
7 5 6 12 17 14 3 19 23 18 25 32 29 32 38 45 40 44 44 44 42 40 38 32 36 43 41 32 24 24 27 30 22 18 15 18 16 19 20 17 13 13 13 17
5 9 5 4 25 49 17 7 27 31 25 25 38 9 14 42 43 45 48 55 50 47 46 42 42 47 41 43 33 28 23 32 29 26 26 22 25 23 21 18 14 17 15 16
5 6 5 14 30 14 13 9 23 29 23 23 11 10 31 39 39 37 47 55 49 52 47 47 40 36 30 30 37 36 25 29 30 28 28 25 25 24 21 19 15 13 19 19
5 6 5 23 8 11 5 15 24 17 15 18 26 29 26 25 31 37 41 47 52 56 58 54 44 37 32 42 36 31 32 34 35 31 32 34 32 29 27 29 29 24 23 24
3 7 11 23 28 21 11 8 12 16 13 21 27 26 21 24 40 41 40 42 43 47 59 62 58 40 35 32 31 32 36 35 36 35 35 38 34 36 34 33 35 27 22 22
7 2 19 16 15 9 5 11 12 19 12 16 21 17 24 35 44 47 47 45 48 50 56 60 60 56 46 34 30 40 42 38 33 33 34 34 43 40 41 38 36 29 28 20
5 10 8 8 4 5 7 8 20 25 23 28 23 29 30 34 42 37 45 45 48 44 49 53 50 52 48 42 41 29 26 38 28 30 33 34 37 44 43 44 39 36 30 25
6 17 8 3 14 2 18 25 23 29 31 34 32 28 35 38 39 34 50 38 46 49 49 48 44 39 46 51 44 31 20 32 46 31 27 26 29 39 37 42 40 38 33 30
12 8 4 8 16 14 17 24 28 30 26 23 28 28 38 39 42 41 48 36 40 45 46 43 43 39 40 41 45 34 30 36 33 23 28 26 30 25 36 34 35 40 36 30
4 4 7 11 14 21 17 18 18 18 25 30 24 21 33 40 39 37 39 34 33 37 44 43 34 29 36 35 40 30 32 28 25 26 36 27 32 32 28 34 34 45 31 37
16 14 13 12 15 16 20 23 27 28 31 32 34 42 40 33 36 42 41 39 38 39 35 34 32 29 26 33 42 34 30 32 31 32 31 35 33 37 33 28 36 39 42 36
16 7 10 11 15 17 22 27 31 33 34 34 42 38 34 42 41 44 42 40 32 36 40 44 44 44 40 37 32 33 30 34 34 35 26 31 28 30 25 26 32 41 40 31
2 4 15 15 15 18 22 26 30 32 33 41 37 32 42 42 46 44 39 33 40 51 54 55 54 50 43 26 26 31 33 36 32 27 28 27 31 36 35 24 21 29 33 39
13 17 14 13 16 22 27 29 36 35 42 39 29 36 45 50 42 36 44 48 48 47 45 49 46 43 40 37 37 35 28 32 26 23 29 27 31 32 28 31 25 35 43 30
11 10 10 16 20 23 27 35 31 40 36 28 30 42 43 44 46 45 49 45 46 51 56 54 52 49 49 43 38 36 32 29 29 27 25 22 28 34 35 29 30 25 33 37
11 6 11 15 20 26 37 23 29 41 30 30 33 43 41 44 47 51 41 47 45 47 53 51 60 52 54 41 29 23 23 11 16 19 23 31 34 33 46 43 34 33 27 27
3 9 14 16 24 27 28 22 32 40 27 29 37 36 39 44 44 52 49 47 45 43 56 48 53 53 58 52 36 32 46 45 41 39 34 38 42 37 39 41 38 33 33 31
11 15 14 21 19 26 21 21 31 38 23 25 31 31 48 40 44 46 46 40 43 46 51 45 44 47 45 46 49 30 51 53 61 64 45 44 46 40 39 37 33 28 25 30
11 16 16 14 17 23 21 21 29 31 22 29 30 31 45 37 39 42 50 45 43 47 43 45 43 43 41 44 47 48 52 59 62 57 50 46 45 41 37 32 28 24 26 22
13 19 8 14 16 19 20 23 30 29 28 23 24 42 29 36 32 38 52 44 33 42 43 41 43 41 40 41 43 53 51 52 48 46 52 46 44 43 33 28 18 15 18 14
18 13 12 17 16 18 21 24 38 30 24 25 25 35 25 29 34 40 56 41 37 41 36 35 40 35 36 36 47 46 47 44 44 41 47 47 49 44 39 32 29 22 14 18
18 21 19 17 18 20 28 32 40 31 25 29 28 34 26 32 34 41 52 45 44 33 31 35 34 30 35 43 46 52 47 45 48 46 47 50 49 49 41 37 32 29 20 15
21 16 14 19 20 26 31 34 36 27 25 28 32 37 27 32 36 39 44 47 41 46 42 39 39 34 34 38 43 47 46 48 53 53 50 46 45 51 54 46 39 28 24 21
Wind_Direction_850mb
121 101 69 82 70 62 81 144 90 79 79 341 327 50 58 51 31 40 55 26 339 289 256 254 247 254 268 291 267 262 300 296 308 314 319 328 344 324 338 349 3 7 359 26
52 80 75 61 80 61 51 51 71 86 68 358 9 32 49 41 29 17 352 318 305 310 290 284 260 264 274 289 266 257 274 292 305 328 308 313 320 331 334 348 328 11 331 22
266 15 62 32 357 90 76 39 18 43 318 17 17 2 39 29 12 352 340 330 301 310 307 307 281 275 285 324 299 267 272 277 285 280 305 309 314 308 305 324 320 227 333 307
154 40 56 124 98 99 81 48 32 40 13 24 347 348 18 24 21 10 354 347 332 305 305 294 304 296 291 303 303 279 273 271 255 282 304 302 294 343 335 306 305 230 255 285
109 94 125 5 4 323 351 50 17 24 14 20 17 34 18 12 12 7 1 353 347 343 320 302 305 295 293 287 303 277 276 275 260 257 271 296 304 310 325 328 291 259 258 263
101 113 239 326 326 328 138 69 23 24 44 46 42 39 321 8 11 12 11 359 351 344 331 331 298 291 269 281 287 282 278 269 267 268 257 271 286 291 311 317 319 287 272 272
108 112 95 314 328 7 63 291 12 50 77 44 50 20 9 6 4 3 4 9 1 359 357 351 329 324 275 270 269 287 287 271 268 270 252 266 275 288 285 295 311 296 294 303
59 82 186 350 28 82 168 44 23 43 33 28 16 358 353 360 357 354 354 360 358 359 357 357 350 324 306 277 288 274 281 275 267 268 260 257 263 272 276 286 293 294 294 302
120 175 143 86 109 105 51 19 352 338 351 350 340 337 344 354 348 354 353 355 354 351 352 359 0 345 312 300 293 271 256 270 276 265 256 255 261 268 264 269 282 281 308 288
87 138 145 140 129 99 29 5 6 355 352 349 343 341 343 349 355 352 351 354 356 351 355 357 0 3 1 334 277 268 271 264 271 271 268 266 259 267 264 262 266 267 290 286
94 164 141 204 182 117 136 3 338 333 327 330 336 348 340 335 353 357 357 352 355 355 356 356 359 4 5 4 358 331 258 290 273 274 279 272 267 260 263 261 262 266 273 281
194 146 166 353 127 230 344 320 313 322 314 318 316 317 333 347 342 336 346 350 354 357 355 353 351 357 5 10 360 348 336 318 290 284 273 278 278 278 258 255 259 260 268 271
125 183 76 167 19 330 311 333 340 330 346 2 1 338 335 343 343 336 337 332 339 346 348 345 347 346 356 359 1 354 351 328 315 321 318 286 281 285 271 260 252 249 262 275
115 183 107 53 6 16 62 51 35 15 0 4 8 356 343 345 343 350 355 351 345 335 340 340 339 339 341 349 356 355 358 352 330 326 326 293 304 283 273 260 269 251 253 264
41 127 89 45 12 45 16 5 360 5 3 358 352 352 355 357 356 351 350 343 339 336 346 348 343 337 342 333 341 343 333 349 350 351 345 341 304 307 270 264 255 254 271 272
86 55 22 57 49 28 8 2 359 1 354 351 351 356 356 351 350 350 353 357 353 357 352 346 340 338 338 327 324 323 327 332 333 337 331 346 339 316 316 274 274 248 261 259
77 353 99 61 34 18 11 0 356 351 346 349 359 356 347 348 348 355 3 3 349 346 351 348 341 334 324 313 301 309 313 334 334 332 331 328 342 333 324 309 290 244 254 252
138 103 77 47 23 359 352 351 348 349 350 355 356 347 352 354 4 4 354 346 347 357 360 356 350 350 354 330 315 308 308 325 326 326 332 325 326 330 334 319 307 280 268 272
118 85 38 5 354 351 348 345 350 347 351 355 346 353 359 4 2 353 350 357 355 358 359 356 355 345 346 337 321 325 327 339 333 326 331 316 314 322 320 321 292 288 275 270
114 50 356 346 338 342 339 342 345 354 350 348 349 355 359 2 6 6 6 7 11 7 3 2 7 6 1 360 357 345 326 13 19 350 342 330 322 307 305 311 301 271 270 260
86 342 339 333 336 342 341 338 342 351 346 347 350 351 356 360 2 7 10 8 10 11 6 4 6 8 13 11 29 36 35 24 14 3 350 345 341 334 329 323 320 294 264 258
331 328 325 327 343 344 343 330 339 349 347 352 345 344 349 357 356 1 12 7 9 358 8 9 12 9 8 5 12 20 15 6 358 354 358 360 355 345 333 328 324 316 292 263
310 317 317 319 323 340 337 322 338 349 348 345 344 342 347 353 351 351 1 6 0 2 10 6 5 13 8 3 5 1 1 359 355 356 357 360 355 348 342 336 328 309 301 299
306 325 299 288 310 324 320 325 341 346 351 345 335 341 352 348 347 349 355 357 357 0 358 359 2 9 2 357 358 358 360 358 0 360 354 2 3 3 356 358 16 44 30 2
303 302 290 285 303 306 323 329 340 349 351 345 340 349 351 345 351 352 355 356 353 351 356 3 358 354 350 358 359 1 0 355 359 357 357 3 7 7 10 5 18 38 349 323
280 290 292 283 284 313 330 330 341 348 341 339 339 347 339 347 347 347 354 6 13 358 348 355 5 1 1 4 4 7 9 12 11 5 3 2 7 8 9 13 22 32 24 5
271 262 257 245 287 313 321 326 338 342 343 331 329 342 329 338 341 342 347 359 8 17 10 2 358 357 355 353 354 355 359 3 10 10 8 12 12 12 8 7 2 358 347 345